Regional Weather Roundup
Issued by NWS Newport/Morehead, NC

Current Version | Previous Version | Text Only | Print | Product List | Glossary On
Versions: 1 2 3 4 5 6 7 8 9 10 11 12 13 14 15 16 17 18 19 20 21 22 23 24 25 26 27 28 29 30 31 32 33 34 35 36 37 38 39 40 41 42 43 44 45 46 47 48 49 50
000
ASUS42 KMHX 231722
RWRMHX
WEATHER ROUNDUP FOR EASTERN NORTH CAROLINA
NATIONAL WEATHER SERVICE NEWPORT/MOREHEAD CITY NC
100 PM EDT TUE SEP 23 2014

NOTE: "FAIR" INDICATES FEW OR NO CLOUDS BELOW 12,000 FEET
WITH NO SIGNIFICANT WEATHER AND/OR OBSTRUCTIONS TO VISIBILITY

NCZ015>017-031-032-045>047-102-103-231800-
NORTH COAST

CITY           SKY/WX    TMP DP  RH WIND       PRES   REMARKS
EDENTON        CLOUDY    65  57  76 N7        30.29F
ELIZABETH CITY CLOUDY    66  57  72 N14       30.30R
KITTY HAWK     CLOUDY    68  56  65 NE9       30.27S
MANTEO         CLOUDY    68  57  67 NE12G18   30.28S

$$

NCZ045>047-081-094-103-104-231800-
CENTRAL COAST

CITY           SKY/WX    TMP DP  RH WIND       PRES   REMARKS
FRISCO         CLOUDY    69  61  75 NE15G25   30.22S
SWANQUARTER      N/A     66 N/A N/A NE10G16   30.21S

$$

NCZ095-097-098-100-101-231800-
SOUTHERN COAST

CITY           SKY/WX    TMP DP  RH WIND       PRES   REMARKS
BEAUFORT       CLOUDY    69  62  78 N16       30.20F
CEDAR ISLAND     N/A     70 N/A N/A N23G31    30.27S
JACKSONVILLE   LGT RAIN  63  58  83 N10       30.23R
NEWPORT        NOT AVBL
PINEY ISLAND   CLOUDY    72  60  66 N20G29    30.21F
WILMINGTON     LGT RAIN  64  60  87 N12G21    30.21F


$$

NCZ011>013-027>030-043-044-078>080-089-090>093-098-231800-
COASTAL PLAIN

CITY           SKY/WX    TMP DP  RH WIND       PRES   REMARKS
AHOSKIE        CLOUDY    62  53  72 N9        30.32F
CLINTON        CLOUDY    64  54  71 NE9G18    30.27F
ELIZABETHTOWN  LGT RAIN  63  56  79 CALM      30.25S
GOLDSBORO      CLOUDY    64  56  77 N7        30.28R
GREENVILLE     CLOUDY    63  54  72 N10       30.30R
HAVELOCK       LGT RAIN  66  59  78 N13       30.24S
KENANSVILLE    CLOUDY    64  54  68 N9        30.27F
KINSTON        CLOUDY    63  54  72 N10       30.29S
NEW BERN       CLOUDY    66  57  72 N9        30.25F
RICHLANDS      CLOUDY    64  54  68 N13       30.24F
ROANOKE RAPIDS NOT AVBL
ROCKY MOUNT    CLOUDY    64  51  62 N15       30.32R
WASHINGTON     CLOUDY    62  55  79 N9        30.28S
WHITEVILLE     LGT RAIN  63  58  85 N5        30.23S

$$

AMZ130-135-150-152-154-156-158-170-250-252-270-ANZ085-086-088-633-658-670-231800-
MARINE OBSERVATIONS

STATION/POSITION TIME  TEMP    WIND        PRES    WAVE   SWELL
                       AIR SEA DIR/SP/G            HT/PER HT/PER
                 (UTC) (F)     (DEG/KT/KT) (MB)    (FT/S) (FT/S)
CHESAPEAKE LIGHT 1700   65      30/ 10/ 12 1026.8
BUOY 44014       1700   69 75   40/ 14/ 17 1024.9    4/ 6   2/10
DUCK             1700   68 74   30/ 15/ 17 1024.6
2E DUCK          1700                        N/A     4/ 6
OREGON INLET     1700   69 73   20/ 12/ 16 1024.7
BUOY 44095       1700      74                N/A     5/ 6
20E OREGON INLET NOT AVBL
HATTERAS CG      NOT AVBL
DIAMOND BUOY     1700   74      10/ 23/ 29 1021.7    6/ 6
CAPE LOOKOUT     1700   69      20/ 19/ 25 1022.1
BEAUFORT LAB     1700   69 75   20/ 15/ 19 1022.2
30 SE NEW RIVER  1700   72 82   30/ 23/ 31 1020.8    7/ 6
5 SE WRIGHTSVILL 1700   64 78   20/ 21/ 25   N/A
BUOY 41002       1612   76 80   70/ 16/ 17 1019.1    3/ 7   3/ 7
BUOY 41004       1700   77 81   60/ 21/ 25 1018.7    6/ 6   2/10

$$



USA.gov is the U.S. government's official web portal to all federal, state and local government web resources and services.